FW7475 Weather Reports


time (UTC)temp
C
wind
direction
speed
KPH
gust
KPH
rain 1hr
cm
rain 24hr
cm
rain mn
cm
humidity
%
barometer
mb
20260505125016 11 24 1.6 4.8 0.00 0.00 0.00 92 1016.6
20260505124016 11 26 4.8 6.4 0.00 0.00 0.00 92 1016.6
20260505123016 11 25 4.8 8.0 0.00 0.00 0.00 92 1016.5
20260505122017 11 25 4.8 6.4 0.00 0.00 0.00 92 1016.5
20260505121037 11 24 6.4 9.7 0.00 0.00 0.00 92 1016.5
20260505120017 11 25 6.4 9.7 0.00 0.00 0.00 92 1016.5
20260505115016 11 25 4.8 9.7 0.00 0.00 0.00 92 1016.5
20260505114016 11 26 6.4 9.7 0.00 0.03 0.00 92 1016.5
20260505113017 11 24 1.6 4.8 0.00 0.03 0.00 92 1016.4
20260505112018 11 24 3.2 6.4 0.00 0.03 0.00 92 1016.4
20260505111016 11 23 1.6 6.4 0.00 0.03 0.00 92 1016.4
20260505102017 11 26 6.4 12.9 0.00 0.03 0.00 92 1016.2
20260505101017 11 27 3.2 6.4 0.00 0.03 0.00 92 1016.3
20260505100018 11 27 6.4 12.9 0.00 0.03 0.00 92 1016.3
20260505095016 11 27 4.8 9.7 0.00 0.03 0.00 92 1016.3
20260505094016 11 26 4.8 9.7 0.00 0.03 0.00 92 1016.2
20260505093017 11 25 1.6 3.2 0.00 0.03 0.00 92 1016.2
20260505092016 11 24 1.6 4.8 0.00 0.03 0.00 92 1016.1
20260505091016 11 26 4.8 8.0 0.00 0.03 0.00 92 1016.1
20260505090016 11 24 4.8 8.0 0.00 0.03 0.00 92 1016.0
20260505085018 11 23 8.0 14.5 0.00 0.03 0.00 92 1015.9
20260505084016 11 24 8.0 14.5 0.00 0.03 0.00 92 1015.9
20260505083035 11 24 11.3 17.7 0.00 0.03 0.00 92 1015.9
20260505082015 11 24 9.7 14.5 0.00 0.03 0.00 92 1015.9
20260505081017 11 23 9.7 16.1 0.00 0.03 0.00 92 1016.0
20260505080015 11 23 8.0 14.5 0.00 0.03 0.00 92 1016.0
20260505075016 11 25 8.0 12.9 0.00 0.03 0.00 92 1016.0
20260505074017 11 25 8.0 9.7 0.00 0.03 0.00 92 1016.0
20260505073018 11 23 8.0 14.5 0.00 0.03 0.00 92 1016.0
20260505072015 11 24 6.4 9.7 0.00 0.03 0.00 92 1016.0
20260505071016 11 23 3.2 8.0 0.00 0.03 0.00 92 1015.9
20260505070017 11 23 6.4 9.7 0.00 0.03 0.00 92 1016.0
20260505065018 11 23 8.0 12.9 0.00 0.03 0.03 92 1016.1
20260505064015 11 25 9.7 14.5 0.00 0.03 0.03 92 1016.1
20260505063036 11 24 11.3 17.7 0.00 0.03 0.03 92 1016.1
20260505062017 11 24 8.0 12.9 0.00 0.03 0.03 92 1016.2
20260505061058 11 24 9.7 14.5 0.00 0.03 0.03 91 1016.2
20260505060016 11 23 9.7 16.1 0.00 0.03 0.03 91 1016.1
20260505055057 11 23 9.7 14.5 0.00 0.03 0.03 91 1016.1
20260505054017 11 24 8.0 12.9 0.00 0.03 0.03 91 1016.1
20260505053015 11 23 9.7 14.5 0.00 0.03 0.03 91 1016.1
20260505052018 11 26 9.7 16.1 0.00 0.03 0.03 91 1016.2
20260505051018 11 25 11.3 16.1 0.00 0.03 0.03 91 1016.2
20260505041017 11 26 8.0 12.9 0.00 0.03 0.03 90 1015.6
20260505040016 11 28 11.3 17.7 0.00 0.03 0.03 90 1015.5
20260505035036 11 28 9.7 16.1 0.00 0.03 0.03 89 1015.4
20260505034037 11 30 11.3 19.3 0.00 0.03 0.03 89 1015.3
20260505033016 11 30 12.9 20.9 0.00 0.03 0.03 89 1015.2
20260505032015 12 30 11.3 16.1 0.00 0.03 0.03 89 1015.1
20260505031017 12 31 12.9 17.7 0.00 0.03 0.03 89 1015.0
20260505030016 12 31 9.7 19.3 0.00 0.03 0.03 89 1015.1
20260505025016 12 30 12.9 20.9 0.00 0.03 0.03 89 1015.1
20260505024016 12 30 9.7 16.1 0.00 0.03 0.03 89 1015.0
20260505023016 12 30 9.7 12.9 0.00 0.03 0.03 89 1015.0
20260505022017 12 29 8.0 12.9 0.00 0.03 0.03 89 1014.9
20260505021015 12 29 8.0 12.9 0.00 0.03 0.03 89 1015.0
20260505020016 12 30 9.7 16.1 0.00 0.03 0.03 89 1015.0
20260505015016 12 31 8.0 14.5 0.00 0.03 0.03 89 1015.0
20260505014018 12 31 9.7 14.5 0.00 0.03 0.03 89 1015.0
20260505013015 12 27 14.5 20.9 0.00 0.03 0.03 88 1015.1
20260505012017 12 31 12.9 20.9 0.00 0.03 0.03 89 1015.2
20260505011017 12 30 11.3 19.3 0.00 0.03 0.03 88 1015.2
20260505010037 12 30 12.9 20.9 0.00 0.03 0.03 88 1015.4
20260505005015 12 32 12.9 19.3 0.00 0.03 0.03 88 1015.5
20260505004037 12 32 16.1 22.5 0.00 0.03 0.03 88 1015.7
20260505003016 12 30 16.1 22.5 0.00 0.03 0.03 88 1015.7
20260505002018 12 30 16.1 22.5 0.00 0.03 0.03 88 1015.7
20260505001016 13 36 14.5 14.5 0.00 0.03 0.03 87 1015.6
20260505000016 13 0.0 0.0 0.00 0.03 0.03 87 1015.6
20260504235017 13 0.0 0.0 0.00 0.03 0.03 88 1015.6
20260504234038 13 0.0 0.0 0.00 0.03 0.03 88 1015.5
20260504233016 13 0.0 0.0 0.00 0.03 0.03 88 1015.6
20260504232017 13 0.0 0.0 0.00 0.03 0.03 88 1015.6
20260504231017 13 0.0 0.0 0.00 0.03 0.03 88 1015.6
20260504230018 13 0.0 0.0 0.00 0.03 0.03 89 1015.7
20260504225017 13 0.0 0.0 0.00 0.03 0.03 89 1015.7
20260504224016 13 0.0 0.0 0.00 0.03 0.03 89 1015.8
20260504223017 13 0.0 0.0 0.00 0.03 0.03 89 1016.0
20260504222015 13 0.0 0.0 0.00 0.03 0.03 89 1016.0
20260504221017 13 36 16.1 19.3 0.00 0.03 0.03 90 1016.2
20260504220016 13 32 17.7 22.5 0.00 0.03 0.03 90 1016.2
20260504215017 13 33 16.1 19.3 0.00 0.03 0.03 90 1016.2
20260504214015 13 34 16.1 20.9 0.00 0.03 0.03 90 1016.2
20260504213016 13 35 14.5 17.7 0.00 0.03 0.03 90 1016.2
20260504212017 13 34 14.5 19.3 0.00 0.03 0.03 90 1016.3
20260504211017 13 34 14.5 19.3 0.00 0.03 0.03 90 1016.3
20260504210035 13 33 14.5 20.9 0.00 0.03 0.03 90 1016.4
20260504205016 13 34 14.5 17.7 0.00 0.03 0.03 91 1016.4
20260504204016 12 34 12.9 16.1 0.00 0.03 0.03 91 1016.5
20260504203015 12 35 14.5 17.7 0.00 0.03 0.03 91 1016.5
20260504202015 12 36 11.3 16.1 0.00 0.03 0.03 91 1016.4
20260504201037 12 31 11.3 16.1 0.00 0.03 0.03 92 1016.4
20260504200015 12 33 11.3 16.1 0.00 0.03 0.03 91 1016.4
20260504195016 12 31 11.3 17.7 0.00 0.03 0.03 92 1016.3
20260504194016 12 27 14.5 20.9 0.00 0.03 0.03 92 1016.3
20260504193016 12 26 14.5 22.5 0.00 0.03 0.03 92 1016.2
20260504192016 12 26 14.5 20.9 0.00 0.03 0.03 92 1016.2
20260504191018 11 24 12.9 20.9 0.00 0.03 0.03 92 1016.1
20260504190136 11 23 12.9 20.9 0.00 0.03 0.03 92 1016.1
20260504185016 11 23 16.1 25.7 0.00 0.03 0.03 92 1016.1
20260504184017 11 25 14.5 24.1 0.00 0.03 0.03 93 1016.1
20260504183037 11 30 14.5 20.9 0.00 0.03 0.03 93 1016.2
20260504182016 11 29 12.9 19.3 0.00 0.03 0.03 93 1016.2
20260504181016 11 29 14.5 19.3 0.00 0.03 0.03 93 1016.2
20260504180017 11 29 12.9 20.9 0.00 0.03 0.03 93 1016.1
20260504175018 11 27 14.5 20.9 0.00 0.03 0.03 93 1015.9
20260504174016 11 21 12.9 22.5 0.00 0.03 0.03 93 1015.9
20260504173016 11 17 16.1 22.5 0.00 0.03 0.03 93 1015.9
20260504172017 11 18 14.5 19.3 0.00 0.03 0.03 93 1015.9
20260504171015 11 18 14.5 25.7 0.00 0.03 0.03 93 1015.9
20260504151016 11 19 9.7 17.7 0.00 0.03 0.03 93 1015.3
20260504141037 11 30 12.9 19.3 0.00 0.03 0.03 93 1015.0